This is the latest recevied weather packets stored in our database for station/object EA7JCM-13. If no packets are shown the sender has not sent any weather packets the latest 10 day(s).
| Time | Temp. | Humidity | Pressure | Rain* | Wind** | Luminosity | Snow |
|---|---|---|---|---|---|---|---|
| 1777546203 | 19.44° C | 70% | 1012.9 hPa | 0 mm | - | - | - |
| 1777545903 | 19.44° C | 69% | 1012.9 hPa | 0 mm | - | - | - |
| 1777545603 | 18.89° C | 70% | 1012.9 hPa | 0 mm | - | - | - |
| 1777545303 | 18.89° C | 69% | 1013 hPa | 0 mm | - | - | - |
| 1777545003 | 18.89° C | 70% | 1013.1 hPa | 0 mm | - | - | - |
| 1777544703 | 18.33° C | 70% | 1012.9 hPa | 0 mm | - | - | - |
| 1777544403 | 18.33° C | 71% | 1013.2 hPa | 0 mm | - | - | - |
| 1777544102 | 18.33° C | 71% | 1013.2 hPa | 0 mm | - | - | - |
| 1777543803 | 18.33° C | 71% | 1013.1 hPa | 0 mm | - | - | - |
| 1777543503 | 18.33° C | 72% | 1013 hPa | 0 mm | - | - | - |
| 1777543202 | 18.33° C | 73% | 1012.8 hPa | 0 mm | - | - | - |
| 1777542903 | 18.33° C | 72% | 1013.2 hPa | 0 mm | - | - | - |
| 1777542603 | 18.33° C | 71% | 1013 hPa | 0 mm | - | - | - |
| 1777542303 | 17.78° C | 72% | 1013.2 hPa | 0 mm | - | - | - |
| 1777542003 | 17.78° C | 74% | 1013.2 hPa | 0 mm | - | - | - |
| 1777541703 | 17.22° C | 74% | 1013.4 hPa | 0 mm | - | - | - |
| 1777541403 | 17.78° C | 75% | 1013.4 hPa | 0 mm | - | - | - |
| 1777541103 | 16.67° C | 76% | 1013.3 hPa | 0 mm | - | - | - |
| 1777540803 | 16.67° C | 75% | 1013.4 hPa | 0 mm | - | - | - |
| 1777540503 | 17.22° C | 74% | 1013 hPa | 0 mm | - | - | - |
| 1777540203 | 16.67° C | 76% | 1013 hPa | 0 mm | - | - | - |
| 1777539903 | 16.67° C | 76% | 1013.1 hPa | 0 mm | - | - | - |
| 1777539603 | 16.11° C | 77% | 1013.1 hPa | 0 mm | - | - | - |
| 1777539303 | 16.11° C | 77% | 1013.3 hPa | 0 mm | - | - | - |
| 1777539003 | 16.11° C | 77% | 1013.3 hPa | 0 mm | - | - | - |
* Rain latest hour (hover to see other rain measurements)
** Current wind speed in m/s (hover to see current wind gust speed)